Cloud_Cover
89 100 86 96 100 100 98 5 82 43 5 4 5 8 5 5 10 8 5 14 8 34 92 78 20 42 5 8 97 74 100 46 100 100 40 28 99 96 4 0 0 0 0
100 100 71 100 100 100 100 33 14 16 49 56 21 28 28 94 91 66 5 6 18 100 81 39 86 22 14 8 16 5 5 7 80 100 89 4 72 50 29 5 0 4 0
95 100 83 100 100 100 100 100 5 5 6 27 38 6 79 100 97 5 5 89 36 100 100 100 84 100 96 100 28 4 87 6 80 19 6 9 67 14 38 61 40 22 5
90 82 98 93 100 100 100 100 7 97 5 4 16 100 100 36 5 59 5 4 5 13 96 100 16 79 100 100 40 0 7 4 32 27 0 6 96 84 70 100 59 21 69
100 91 100 100 99 100 99 34 91 84 12 5 4 6 5 5 5 5 8 5 5 5 33 99 88 6 72 49 100 74 84 5 5 5 5 5 5 15 43 100 100 100 8
100 100 100 100 94 64 57 97 61 21 5 5 5 5 5 21 68 16 10 5 5 5 23 44 49 86 95 99 100 100 90 81 34 5 4 1 3 13 32 100 66 93 99
100 100 100 93 91 89 98 15 5 5 5 5 5 84 97 96 100 52 48 11 20 5 12 36 32 14 69 55 7 100 100 88 90 56 1 0 5 6 5 10 100 100 100
100 100 100 100 100 100 55 5 7 6 11 29 100 97 100 100 100 100 100 100 99 82 39 36 76 100 100 100 100 100 100 82 83 33 5 10 8 5 5 6 91 99 37
100 100 100 100 100 100 100 100 100 76 46 100 100 100 55 46 99 100 100 100 100 100 84 80 86 100 100 100 100 100 100 100 91 24 28 14 8 7 5 5 5 10 5
100 100 100 100 100 100 100 99 20 67 92 71 92 97 100 100 100 99 100 100 100 100 100 67 100 95 100 100 100 100 96 100 100 100 100 94 18 21 5 5 5 75 10
100 100 100 100 100 100 100 100 65 51 87 98 97 6 100 100 80 37 58 100 100 100 100 100 100 100 100 100 99 100 98 100 100 100 100 100 100 44 58 18 94 47 96
100 100 100 100 100 100 100 100 81 11 62 48 6 6 76 82 35 90 96 100 100 100 100 100 100 100 100 100 100 100 100 100 99 86 68 100 100 100 99 98 39 80 100
100 100 100 100 100 100 100 100 100 68 97 96 26 62 74 100 66 91 100 100 100 100 100 100 100 81 100 100 100 100 100 70 50 83 98 100 82 80 100 100 100 100 100
100 100 100 100 100 100 100 100 100 100 92 80 91 99 100 93 62 100 100 100 100 100 100 100 99 100 100 94 100 93 100 100 98 99 100 100 100 100 100 100 100 100 100
100 100 100 100 100 100 100 100 100 100 100 99 100 100 100 100 100 100 100 100 100 100 100 100 100 100 100 100 100 100 88 97 88 99 100 100 100 100 100 100 100 100 100
100 100 100 100 100 100 100 100 100 100 100 100 100 100 100 100 100 100 100 100 100 100 100 100 100 100 100 100 100 100 86 95 100 100 100 100 100 100 100 100 100 100 100
100 100 100 100 100 100 100 100 100 100 100 100 100 100 100 100 100 100 100 100 100 100 100 100 100 100 100 100 100 100 100 100 100 100 100 100 100 100 100 100 100 100 100
100 100 100 100 100 100 100 100 100 100 100 100 100 100 100 100 100 100 100 100 100 100 100 100 100 100 100 100 100 100 99 100 100 100 100 96 100 100 100 100 100 100 100
100 100 100 100 100 100 100 100 100 100 100 100 100 100 100 100 100 100 100 100 100 100 100 100 100 100 100 100 100 100 100 100 100 100 100 98 100 100 100 100 91 100 98
100 100 100 100 100 100 100 100 100 100 100 100 100 100 100 100 100 100 100 100 100 100 100 100 100 100 100 100 100 100 100 100 100 100 100 100 98 100 100 100 100 97 99
100 100 100 100 100 100 100 100 100 100 100 100 100 100 100 100 100 100 100 100 100 100 100 100 100 100 100 100 100 100 100 100 100 99 100 100 95 96 100 100 94 97 97
100 100 100 100 100 100 100 100 100 100 100 100 100 100 100 100 100 100 100 100 100 100 100 100 100 100 100 100 100 100 100 100 100 100 100 92 96 70 100 100 93 13 81
100 100 100 100 100 100 100 100 100 100 100 100 100 100 100 100 100 100 100 100 100 100 100 100 100 100 100 100 100 100 100 100 100 100 100 100 83 100 100 100 100 100 100
100 100 100 100 100 100 100 100 100 100 100 100 100 100 100 100 100 100 100 100 100 100 100 100 100 100 100 100 100 100 100 100 100 100 100 100 97 99 91 98 100 100 82
100 100 100 100 100 100 100 100 100 100 100 100 100 100 100 100 100 100 100 100 100 100 100 100 100 100 100 100 100 100 100 100 100 100 100 100 100 100 100 100 96 100 71
100 100 100 100 100 100 100 100 100 100 100 100 100 100 100 100 100 100 100 100 100 100 100 100 100 100 100 100 100 100 100 100 100 100 100 100 100 97 100 100 100 99 100